STARLINK-38055, 69704

Orbit data source: Space-Track

STARLINK-38055, 69704 is a payload satellite owned by SpaceX/Seattle (US) in SSO that was launched on Sun, 28 Jun 2026 UTC via an FALCON 9 launch vehicle from the Air Force Western Test Range (AFWTR). Payload-class satellites include a variety of spacecraft equipped with specific instruments for various scientific and technological missions. These include communications satellites like Starlink; space stations such as the ISS; scientific satellites like the Hubble; Earth observation satellites from companies like Planet Labs, Umbra, and HawkEye 360; GPS; miniature CubeSats for education and research; and military/defense satellites.

Not visible in the next 10 days
Identifier
69704, 2026-147A
Orbit
SSO
Country
Flag of USUS
Related business
Manufacturer
SpaceX/Seattle
Mission
Operational spacecraft
Bus & Motor
STARLINK V2MO, Unknown motor
Mass
575 kg wet, ~530 kg dry
Launch date (UTC)
2026-06-28 (2 weeks ago)
Launch vehicle
FALCON 9
Launch site
Air Force Western Test Range (AFWTR)
Object type
Payload
Rocket body
Debris
Shape & HBR
Unknown shape, 17.7 m
Radar Cross Section
Large (>1 m²)

Expand to show TLE details & history
Last TLE update: 8 hours ago

TLE from 8 hours ago
0 STARLINK-38055
1 69704U 26147A   26193.06746859  .00326324  00000-0  16309-2 0  9993
2 69704  97.2843 229.2730 0001761 132.8641 227.2775 15.80956769  3366
Epoch: 2026-07-12T01:37Z
TLE epoch observation values (Epoch: 2026-07-12T01:37:09.286Z)
Latitude
-0.00005°
Longitude
-84.98734°
Altitude
331.711 km
Speed
7.709 km/s
True Right ascension
15h 17m 05s
True Declination
0° 00' 00"
Sunlit
Object was in full shadow at epoch
Visualization orbit readout
Latitude
Unknown
Longitude
Unknown
Altitude
Unknown
Speed
Unknown
Apparent Right ascension
Unknown
Apparent Declination
Unknown
Sunlit
N/A
Visualization observer readout
Local Sidereal Time
21:42:25
Azimuth
Unknown
Elevation
Unknown
Doppler factor
Unknown
Orbital elements
Apogee altitude
325.794 km
Perigee altitude
323.433 km
Semi-major axis
6,702.751 km
Eccentricity
0.00018
Inclination
97.2843°
RAAN
229.273°
Arg. of periapsis
132.8641°
True anomaly
227.26268°
Mean anomaly
227.2775°
Eccentric anomaly
227.27009°
Mean motion
3.95516 °/min
Orbital period
91.02 mins
BSTAR
0.0016309
Loading maneuver chart data...
Computing Atmospheric mass density...
Loading historical data...
Loading historical data...
Loading historical data...
Loading historical data...
Loading historical data...
Loading historical data...
Loading historical data...

Documentation

Showing up to 5 results
|